Fort Meade, MD

11:32 PM EDT on May 26, 2017 (GMT -0400)
Tipton

Weather History for KFME - October, 2013

Change the Weather History Date:

Monday, October 21, 2013

  Actual Average (KBWI) Record (KBWI)
Temperature  
Mean Temperature 50 °F -  
Max Temperature 66 °F 65 °F 90 °F (1947)
Min Temperature 33 °F 42 °F 26 °F (1952)
Degree Days  
Heating Degree Days 16    
Moisture  
Dew Point 38 °F    
Average Humidity 74    
Maximum Humidity 100    
Minimum Humidity 30    
Precipitation  
Precipitation 0.00 in - - ()
Sea Level Pressure  
Sea Level Pressure 30.11 in    
Wind  
Wind Speed 2 mph (SSE)    
Max Wind Speed 12 mph    
Max Gust Speed 16 mph    
Visibility 10 miles    
Events      
Averages and records for this station are not official NWS values.
T = Trace of Precipitation, MM = Missing Value Source: NWS Daily Summary

Daily Weather History Graph

Daily Weather History Graph

Search for Another Location

Airport or City:

Trip Planner

Search our weather history database for the weather conditions in past years. The results will help you decide how hot, cold, wet, or windy it might be!

Date:

Astronomy

Oct. 21, 2013 Rise Set
Actual Time 7:23 AM EDT 6:19 PM EDT
Civil Twilight 6:55 AM EDT 6:46 PM EDT
Nautical Twilight 6:24 AM EDT 7:17 PM EDT
Astronomical Twilight 5:53 AM EDT 7:48 PM EDT
Moon 8:11 PM EDT (10/21) 9:54 AM EDT (10/21)
Length of Visible Light 11h 50m
Length of Day
10h 56m
Waning Gibbous, 93% of the Moon is Illuminated
Oct 21
Waning Gibbous
Oct 26
Last Quarter
Nov 3
New
Nov 10
First Quarter
Nov 17
Full

Hourly Weather History & Observations

Time (EDT) Temp. Dew Point Humidity Pressure Visibility Wind Dir Wind Speed Gust Speed Precip Events Conditions
12:00 AM 37.4 °F 35.6 °F 93% 30.13 in 10.0 mi Calm Calm - N/A   Clear
12:21 AM 37.4 °F 35.6 °F 93% 30.13 in 10.0 mi Calm Calm - N/A   Clear
12:39 AM 37.4 °F 35.6 °F 93% 30.13 in 10.0 mi Calm Calm - N/A   Clear
1:00 AM 37.4 °F 35.6 °F 93% 30.13 in 10.0 mi Calm Calm - N/A   Clear
1:21 AM 35.6 °F 35.6 °F 100% 30.14 in 10.0 mi Calm Calm - N/A   Clear
1:39 AM 35.6 °F 35.6 °F 100% 30.14 in 10.0 mi Calm Calm - N/A   Clear
2:00 AM 35.6 °F 33.8 °F 93% 30.14 in 10.0 mi Calm Calm - N/A   Clear
2:21 AM 35.6 °F 33.8 °F 93% 30.14 in 10.0 mi Calm Calm - N/A   Clear
2:39 AM 35.6 °F 33.8 °F 93% 30.14 in 10.0 mi Calm Calm - N/A   Clear
3:00 AM 35.6 °F 33.8 °F 93% 30.14 in 10.0 mi Calm Calm - N/A   Clear
3:21 AM 35.6 °F 33.8 °F 93% 30.14 in 10.0 mi Calm Calm - N/A   Clear
3:42 AM 35.6 °F 33.8 °F 93% 30.14 in 10.0 mi Calm Calm - N/A   Clear
4:00 AM 35.6 °F 33.8 °F 93% 30.14 in 10.0 mi Calm Calm - N/A   Clear
4:21 AM 35.6 °F 33.8 °F 93% 30.15 in 10.0 mi Calm Calm - N/A   Clear
4:42 AM 33.8 °F 33.8 °F 100% 30.15 in 10.0 mi Calm Calm - N/A   Clear
5:00 AM 33.8 °F 33.8 °F 100% 30.16 in 10.0 mi Calm Calm - N/A   Clear
5:21 AM 33.8 °F 33.8 °F 100% 30.16 in 10.0 mi Calm Calm - N/A   Clear
5:42 AM 33.8 °F 33.8 °F 100% 30.16 in 10.0 mi Calm Calm - N/A   Clear
6:00 AM 33.8 °F 33.8 °F 100% 30.16 in 7.0 mi Calm Calm - N/A   Clear
6:21 AM 33.8 °F 32.0 °F 93% 30.16 in 7.0 mi Calm Calm - N/A   Clear
6:42 AM 33.8 °F 32.0 °F 93% 30.17 in 7.0 mi Calm Calm - N/A   Clear
7:00 AM 33.8 °F 32.0 °F 93% 30.16 in 10.0 mi Calm Calm - N/A   Clear
7:21 AM 33.8 °F 32.0 °F 93% 30.17 in 7.0 mi Calm Calm - N/A   Clear
7:42 AM 33.8 °F 32.0 °F 93% 30.17 in 7.0 mi Calm Calm - N/A   Clear
8:00 AM 33.8 °F 33.8 °F 100% 30.17 in 7.0 mi Calm Calm - N/A   Clear
8:18 AM 33.8 °F 33.8 °F 100% 30.18 in 10.0 mi Calm Calm - N/A   Clear
8:42 AM 35.6 °F 35.6 °F 100% 30.18 in 10.0 mi Calm Calm - N/A   Clear
9:00 AM 37.4 °F 37.4 °F 100% 30.18 in 10.0 mi Calm Calm - N/A   Clear
9:21 AM 42.8 °F 41.0 °F 93% 30.18 in 10.0 mi Calm Calm - N/A   Clear
9:42 AM 46.4 °F 44.6 °F 93% 30.18 in 10.0 mi Calm Calm - N/A   Clear
10:00 AM 50.0 °F 44.6 °F 82% 30.18 in 10.0 mi Calm Calm - N/A   Clear
10:21 AM 53.6 °F 44.6 °F 72% 30.17 in 10.0 mi Calm Calm - N/A   Clear
10:42 AM 55.4 °F 42.8 °F 63% 30.17 in 10.0 mi SSW 5.8 mph - N/A   Clear
11:00 AM 59.0 °F 42.8 °F 55% 30.16 in 10.0 mi SSW 5.8 mph - N/A   Clear
11:21 AM 60.8 °F 42.8 °F 52% 30.16 in 10.0 mi WSW 3.5 mph - N/A   Clear
11:42 AM 62.6 °F 39.2 °F 42% 30.15 in 10.0 mi South 4.6 mph - N/A   Clear
12:03 PM 62.6 °F 35.6 °F 37% 30.15 in 10.0 mi South 8.1 mph - N/A   Clear
12:21 PM 64.4 °F 33.8 °F 32% 30.14 in 10.0 mi South 6.9 mph - N/A   Clear
12:42 PM 64.4 °F 33.8 °F 32% 30.13 in 10.0 mi SSW 9.2 mph - N/A   Clear
1:03 PM 64.4 °F 33.8 °F 32% 30.12 in 10.0 mi SSE 6.9 mph - N/A   Clear
1:21 PM 66.2 °F 35.6 °F 32% 30.11 in 10.0 mi SSE 9.2 mph - N/A   Clear
1:42 PM 64.4 °F 33.8 °F 32% 30.10 in 10.0 mi South 5.8 mph - N/A   Clear
2:03 PM 66.2 °F 33.8 °F 30% 30.09 in 10.0 mi South 5.8 mph - N/A   Clear
2:21 PM 66.2 °F 35.6 °F 32% 30.08 in 10.0 mi South 5.8 mph - N/A   Clear
2:42 PM 66.2 °F 35.6 °F 32% 30.07 in 10.0 mi SSE 6.9 mph - N/A   Clear
3:03 PM 66.2 °F 35.6 °F 32% 30.07 in 10.0 mi SSE 6.9 mph - N/A   Clear
3:21 PM 64.4 °F 35.6 °F 34% 30.07 in 10.0 mi South 6.9 mph - N/A   Clear
3:42 PM 64.4 °F 35.6 °F 34% 30.06 in 10.0 mi SSW 8.1 mph - N/A   Clear
4:03 PM 64.4 °F 35.6 °F 34% 30.05 in 10.0 mi SSE 6.9 mph - N/A   Clear
4:21 PM 64.4 °F 41.0 °F 42% 30.04 in 10.0 mi SE 10.4 mph - N/A   Clear
4:42 PM 62.6 °F 42.8 °F 48% 30.04 in 10.0 mi ESE 11.5 mph 16.1 mph N/A   Clear
5:03 PM 62.6 °F 42.8 °F 48% 30.04 in 10.0 mi SE 9.2 mph - N/A   Clear
5:21 PM 60.8 °F 42.8 °F 52% 30.04 in 10.0 mi SE 8.1 mph - N/A   Clear
5:42 PM 60.8 °F 42.8 °F 52% 30.04 in 10.0 mi SSE 9.2 mph - N/A   Clear
6:03 PM 59.0 °F 42.8 °F 55% 30.05 in 10.0 mi SSE 6.9 mph - N/A   Clear
6:21 PM 57.2 °F 42.8 °F 59% 30.04 in 10.0 mi SE 5.8 mph - N/A   Clear
6:42 PM 55.4 °F 42.8 °F 63% 30.05 in 10.0 mi SE 4.6 mph - N/A   Clear
7:03 PM 53.6 °F 42.8 °F 67% 30.05 in 10.0 mi SE 4.6 mph - N/A   Clear
7:21 PM 51.8 °F 42.8 °F 71% 30.04 in 10.0 mi SE 4.6 mph - N/A   Clear
7:39 PM 50.0 °F 42.8 °F 76% 30.04 in 10.0 mi ESE 4.6 mph - N/A   Clear
8:03 PM 50.0 °F 42.8 °F 76% 30.05 in 10.0 mi SE 3.5 mph - N/A   Clear
8:21 PM 48.2 °F 42.8 °F 82% 30.04 in 10.0 mi Calm Calm - N/A   Clear
8:42 PM 46.4 °F 42.8 °F 87% 30.05 in 10.0 mi Calm Calm - N/A   Clear
9:03 PM 46.4 °F 42.8 °F 87% 30.04 in 10.0 mi Calm Calm - N/A   Clear
9:24 PM 46.4 °F 42.8 °F 87% 30.03 in 10.0 mi Calm Calm - N/A   Clear
9:42 PM 46.4 °F 42.8 °F 87% 30.03 in 10.0 mi Calm Calm - N/A   Clear
10:03 PM 44.6 °F 42.8 °F 93% 30.03 in 10.0 mi Calm Calm - N/A   Clear
10:24 PM 44.6 °F 42.8 °F 93% 30.02 in 10.0 mi Calm Calm - N/A   Clear
10:42 PM 44.6 °F 42.8 °F 93% 30.02 in 10.0 mi Calm Calm - N/A   Clear
11:03 PM 44.6 °F 42.8 °F 93% 30.01 in 10.0 mi Calm Calm - N/A   Clear
11:24 PM 44.6 °F 42.8 °F 93% 30.00 in 10.0 mi Calm Calm - N/A   Clear
11:42 PM 44.6 °F 42.8 °F 93% 30.01 in 10.0 mi Calm Calm - N/A   Clear